Prescott, AZ

5:23 AM MST on December 06, 2016 (GMT -0700)
Love

Weather History for KPRC - October, 2014

Change the Weather History Date:

Sunday, October 12, 2014

  Actual Average Record
Temperature  
Mean Temperature 65 °F 58 °F  
Max Temperature 79 °F 73 °F 90 °F (1950)
Min Temperature 50 °F 43 °F 24 °F (2008)
Degree Days  
Heating Degree Days 0    
Month to date heating degree days 29  
Since 1 July heating degree days 54  
Cooling Degree Days 0    
Month to date cooling degree days 0  
Year to date cooling degree days 1039  
Growing Degree Days 16 (Base 50)    
Moisture  
Dew Point 29 °F    
Average Humidity 29    
Maximum Humidity 55    
Minimum Humidity 10    
Precipitation  
Precipitation 0.00 in 0.03 in 0.14 in (1980)
Month to date precipitation 0.14 0.40  
Year to date precipitation 10.20 11.57  
Sea Level Pressure  
Sea Level Pressure 29.87 in    
Wind  
Wind Speed 12 mph (WNW)    
Max Wind Speed 25 mph    
Max Gust Speed 33 mph    
Visibility 10 miles    
Events      
T = Trace of Precipitation, MM = Missing Value Source: NWS Daily Summary

Daily Weather History Graph

Daily Weather History Graph

Search for Another Location

Airport or City:

Trip Planner

Search our weather history database for the weather conditions in past years. The results will help you decide how hot, cold, wet, or windy it might be!

Date:

Astronomy

Oct. 12, 2014 Rise Set
Actual Time 6:32 AM MST 5:58 PM MST
Civil Twilight 6:07 AM MST 6:24 PM MST
Nautical Twilight 5:38 AM MST 6:53 PM MST
Astronomical Twilight 5:09 AM MST 7:22 PM MST
Moon 9:27 PM MST (10/12) 10:50 AM MST (10/12)
Length of Visible Light 12h 16m
Length of Day
11h 25m
Waning Gibbous, 78% of the Moon is Illuminated
Oct 12
Waning Gibbous
Oct 15
Last Quarter
Oct 23
New
Oct 30
First Quarter
Nov 6
Full

Hourly Weather History & Observations

Time (MST) Temp. Dew Point Humidity Pressure Visibility Wind Dir Wind Speed Gust Speed Precip Events Conditions
12:53 AM 57.9 °F 39.9 °F 51% 29.88 in 10.0 mi SSW 6.9 mph - N/A   Clear
1:53 AM 59.0 °F 39.9 °F 49% 29.87 in 10.0 mi South 9.2 mph - N/A   Clear
2:53 AM 60.1 °F 39.9 °F 47% 29.84 in 10.0 mi Calm Calm - N/A   Clear
3:53 AM 60.1 °F 39.9 °F 47% 29.83 in 10.0 mi WSW 6.9 mph - N/A   Clear
4:53 AM 55.0 °F 39.9 °F 57% 29.85 in 10.0 mi WSW 4.6 mph - N/A   Clear
5:53 AM 54.0 °F 37.9 °F 55% 29.86 in 10.0 mi SW 8.1 mph - N/A   Clear
6:53 AM 57.0 °F 37.9 °F 49% 29.88 in 10.0 mi WSW 5.8 mph - N/A   Clear
7:53 AM 62.1 °F 41.0 °F 46% 29.88 in 10.0 mi South 5.8 mph - N/A   Clear
8:53 AM 69.1 °F 37.0 °F 31% 29.86 in 10.0 mi WSW 12.7 mph 19.6 mph N/A   Clear
9:53 AM 71.1 °F 36.0 °F 28% 29.86 in 10.0 mi WSW 21.9 mph 29.9 mph N/A   Clear
10:53 AM 73.9 °F 33.1 °F 22% 29.82 in 10.0 mi WSW 20.7 mph 27.6 mph N/A   Clear
11:53 AM 75.9 °F 33.1 °F 21% 29.81 in 10.0 mi West 18.4 mph 26.5 mph N/A   Clear
12:53 PM 75.9 °F 35.1 °F 23% 29.80 in 10.0 mi WSW 19.6 mph 24.2 mph N/A   Clear
1:53 PM 79.0 °F 23.0 °F 13% 29.78 in 10.0 mi WNW 21.9 mph 26.5 mph N/A   Clear
2:53 PM 78.1 °F 26.1 °F 15% 29.78 in 10.0 mi WNW 16.1 mph 24.2 mph N/A   Clear
3:28 PM 77.0 °F 18.0 °F 11% 30.00 in 10.0 mi NNW 19.6 mph - N/A   Clear
3:53 PM 75.9 °F 16.0 °F 10% 29.79 in 10.0 mi NW 21.9 mph 28.8 mph N/A   Clear
4:53 PM 73.9 °F 18.0 °F 12% 29.81 in 10.0 mi WNW 16.1 mph - N/A   Clear
5:53 PM 66.9 °F 21.9 °F 18% 29.85 in 10.0 mi North 13.8 mph - N/A   Clear
6:53 PM 62.1 °F 21.9 °F 21% 29.89 in 10.0 mi North 11.5 mph - N/A   Clear
7:53 PM 59.0 °F 19.9 °F 22% 29.92 in 10.0 mi NNW 4.6 mph - N/A   Clear
8:53 PM 55.9 °F 17.1 °F 22% 29.93 in 10.0 mi North 11.5 mph - N/A   Clear
9:53 PM 57.0 °F 15.1 °F 19% 29.94 in 10.0 mi North 17.3 mph - N/A   Clear
10:53 PM 54.0 °F 16.0 °F 22% 29.96 in 10.0 mi North 8.1 mph - N/A   Clear
11:53 PM 51.1 °F 16.0 °F 25% 29.96 in 10.0 mi NNW 11.5 mph - N/A   Clear